x

8452660 - Newport, Ri (nwpr1) Weather Station

10:54pm - Wed 31st Aug 2016 All times are EDT. -4 hours from GMT.

  • Wind
    7mph, 8mph gusts
  • Sea Temp 72°f
  • Air Temp 73°f
  • Sea Pressure 1012.2mb
  • 8452660 - Newport, Ri
  • 8452660 - Newport, Ri

More Historic Weather Station data

Upgrade to MSW Pro to gain access to the past 30 days of data for over 8000 Wavebouys and Weather Stations around the globe.

Join Pro

Comparision Forecast

View Surf forecast
   
Wed 08/31 10:54pm 7 8 mph 1012.2mb 72f 73f
10:48pm 6 8 mph 1012.2mb 72f 73f
10:42pm 6 8 mph 1012.3mb 72f 73f
10:36pm 7 9 mph 1012.3mb 72f 73f
10:30pm 7 9 mph - 72f 73f
10:24pm 8 9 mph - 72f 73f
10:18pm  -  mph 1012.4mb 72f 73f
10:12pm  -  mph 1012.3mb 72f 73f
10:06pm  -  mph 1012.4mb 72f 73f
10:00pm  -  mph 1012.4mb 72f 73f
9:54pm  -  mph 1012.4mb 72f 73f
9:48pm  -  mph - 72f 73f
9:42pm  -  mph - 72f 73f
9:36pm  -  mph - 72f 73f
9:30pm 9 11 mph 1012.3mb 72f -
9:24pm 9 11 mph 1012.3mb 72f -
9:18pm 10 11 mph 1012.4mb 72f 73f
9:12pm 9 11 mph 1012.4mb 72f 73f
9:06pm 9 10 mph 1012.4mb 72f 73f
9:00pm  -  mph 1012.4mb 72f 73f
8:54pm  -  mph 1012.3mb 72f 73f
8:48pm 8 10 mph - 72f 73f
8:42pm 8 10 mph - 72f 73f
8:36pm 8 10 mph - 72f 73f
8:30pm 8 11 mph - 72f -
8:24pm 9 11 mph - 72f -
8:18pm  -  mph - 72f 73f
8:12pm  -  mph - 72f 73f
8:06pm  -  mph - 72f 73f
8:00pm  -  mph - 72f 73f
7:54pm  -  mph - 72f 73f
7:48pm  -  mph 1012mb - -
7:42pm  -  mph 1011.9mb - -
6:54pm  -  mph 1011.8mb 72f -
6:48pm  -  mph 1011.9mb 72f -
6:42pm  -  mph 1011.9mb 72f -
6:36pm  -  mph 1011.9mb 72f -
6:30pm 10 11 mph 1011.9mb 72f 73f
6:24pm 10 13 mph 1011.9mb 72f 73f
6:18pm  -  mph 1011.8mb 72f -
6:12pm  -  mph 1011.8mb 72f -
6:06pm  -  mph 1011.8mb 72f -
6:00pm  -  mph - 72f 73f
5:54pm  -  mph - 72f 73f
5:48pm 10 13 mph - 72f 73f
5:42pm 11 15 mph - 72f 74f
5:36pm 13 14 mph - 72f 74f
5:30pm 13 15 mph 1012mb 72f 74f
5:24pm 13 15 mph 1012.1mb 72f 74f
5:18pm 13 17 mph 1012.1mb 72f 74f
5:12pm 14 17 mph 1012.2mb 72f 74f
5:06pm 15 17 mph 1012.2mb 72f 74f
5:00pm 13 16 mph 1012.3mb 72f 74f
4:54pm 14 17 mph 1012.3mb 72f 74f
4:48pm 15 17 mph 1012.3mb 72f 74f
4:42pm 14 16 mph 1012.3mb 72f 74f
4:36pm 13 16 mph 1012.3mb 72f 74f
4:30pm 13 15 mph 1012.4mb 72f 74f
4:24pm 13 14 mph 1012.5mb 72f 74f
4:18pm 11 14 mph 1012.6mb 72f 74f
4:12pm 10 13 mph 1012.6mb 72f 74f
4:06pm 11 13 mph 1012.5mb 72f 74f
4:00pm 13 16 mph 1012.6mb 72f 74f
3:54pm 11 15 mph 1012.6mb 72f 74f
3:48pm 11 14 mph 1012.7mb 72f 74f
3:42pm 10 11 mph 1012.7mb 72f 75f
3:36pm 10 14 mph 1012.8mb 72f 75f
3:30pm 11 14 mph 1012.8mb 72f 75f
3:24pm 11 14 mph 1012.8mb 72f 74f
3:18pm 11 14 mph 1012.9mb 72f 74f
3:12pm 14 15 mph 1013mb 72f 74f
3:06pm 13 15 mph 1013.1mb 72f 74f
3:00pm 13 15 mph 1013.1mb 72f 74f
2:54pm 13 15 mph 1013.1mb 72f 75f
2:48pm 13 15 mph 1013.2mb 72f 74f
2:42pm 13 16 mph 1013.2mb 72f 74f
2:36pm 13 15 mph 1013.3mb 72f 74f
2:30pm 13 15 mph 1013.3mb 72f 74f
2:24pm 13 15 mph 1013.3mb 72f 75f
2:18pm 14 16 mph 1013.3mb 72f 75f
2:12pm 14 16 mph 1013.3mb 72f 75f
2:06pm 14
mph
1013.5mb 72f 75f
2:00pm 13 14 mph 1013.5mb 72f 75f
1:54pm 11 14 mph 1013.5mb 72f 75f
1:48pm 10 15 mph 1013.6mb 72f 75f
1:42pm 14 16 mph 1013.7mb 72f 75f
1:36pm 13 14 mph 1013.7mb 72f 75f
1:30pm 13 14 mph 1013.7mb 72f 75f
1:24pm 11 14 mph 1013.8mb 72f 75f
1:18pm 11 15 mph 1013.9mb 72f 75f
1:12pm 11 15 mph 1014mb 72f 74f
1:06pm 11 13 mph 1014mb 72f 74f
1:00pm 11 14 mph 1014.1mb 72f 74f
12:54pm 13 14 mph 1014.1mb 72f 74f
12:48pm 13 15 mph 1014.3mb 72f 74f
12:42pm 11 14 mph 1014.3mb 72f 74f
12:36pm 11 15 mph 1014.4mb 72f 74f
12:30pm 13 14 mph 1014.5mb 72f 74f
12:24pm 10 15 mph 1014.5mb 72f 74f
12:18pm 11 15 mph 1014.4mb 72f 74f
12:12pm 14 16 mph 1014.5mb 72f 74f
12:06pm 13 15 mph 1014.5mb 72f 74f
12:00pm 11 14 mph 1014.5mb 72f 74f
11:54am 11 15 mph 1014.6mb 72f 74f
11:48am 13 15 mph 1014.6mb 72f 74f
11:42am 13 14 mph 1014.7mb 72f 74f
11:36am 11 14 mph 1014.8mb 72f 74f
11:30am 10 14 mph 1014.8mb 72f 74f
11:24am 11 15 mph 1014.9mb 72f 74f
11:18am 11 14 mph 1014.9mb 72f 74f
11:12am 11 14 mph 1015mb 72f 74f
11:06am 11 14 mph 1015mb 72f 74f
11:00am 11 14 mph 1015.1mb 72f 74f
10:54am 11 14 mph 1015.2mb 72f 74f
10:48am 11 14 mph 1015.2mb 72f 74f
10:42am 10 11 mph 1015.2mb 72f 74f
10:36am 9 13 mph 1015.3mb 72f 74f
10:30am 9 11 mph 1015.3mb 72f 74f
10:24am 9 11 mph 1015.4mb 72f 74f
10:18am 8 10 mph 1015.4mb 72f 74f
10:12am 8 13 mph 1015.4mb 72f 75f
10:06am 10 13 mph 1015.3mb 72f 75f
10:00am 10 14 mph 1015.4mb 72f 75f
9:54am 10 13 mph 1015.3mb 72f 74f
9:48am 9 15 mph 1015.3mb 72f 74f
9:42am 8 10 mph 1015.3mb 72f 73f
9:36am 8 11 mph 1015.3mb 72f 73f
9:30am 9 11 mph 1015.3mb 72f 73f
9:24am 8 11 mph 1015.4mb 72f 73f
9:18am 9 11 mph 1015.4mb 72f 73f
9:12am 8 10 mph 1015.5mb 72f 73f
9:06am 8 10 mph 1015.5mb 72f 73f
9:00am 7 9 mph 1015.5mb 72f 73f
8:54am 8 10 mph 1015.5mb 72f 73f
8:48am 9 11 mph 1015.6mb 72f 73f
8:42am 9 11 mph 1015.6mb 72f 73f
8:36am 10 13 mph 1015.6mb 72f 72f
8:30am 10 13 mph 1015.6mb 72f 72f
8:24am 9 10 mph 1015.6mb 72f 72f
8:18am 7 9 mph 1015.6mb 72f 72f
8:12am 8 9 mph 1015.6mb 72f 72f
8:06am 7 8 mph 1015.6mb 72f 71f
8:00am 7 8 mph 1015.6mb 72f 71f
7:54am 7 8 mph 1015.7mb 72f 71f
7:48am 7 8 mph 1015.7mb 72f 71f
7:42am 7 8 mph 1015.8mb 72f 71f
7:36am 7 8 mph 1015.8mb 72f 71f
7:30am 7 8 mph 1015.8mb 72f 71f
7:24am 7 9 mph 1015.8mb 72f 71f
7:18am 7 8 mph 1015.8mb 72f 71f
7:12am 6 7 mph 1015.7mb 72f 71f
7:06am 6 7 mph 1015.7mb 72f 71f
7:00am 5 7 mph 1015.6mb 72f 71f
6:54am 6 7 mph 1015.6mb 72f 71f
6:48am 6 7 mph 1015.7mb 72f 71f
6:42am 6 7 mph 1015.7mb 72f 71f
6:36am 6 7 mph 1015.8mb 72f 71f
6:30am 5 7 mph 1015.8mb 72f 71f
6:24am 6 8 mph 1015.8mb 72f 71f
6:18am 6 7 mph 1016mb 72f 71f
6:12am 6 7 mph 1016mb 72f 71f
6:06am 6 7 mph 1016mb 72f 71f
6:00am 6 7 mph 1015.9mb 72f 71f
5:54am 6 8 mph 1015.9mb 72f 71f
5:48am 5 6 mph 1015.9mb 72f 71f
5:42am 5 6 mph 1015.9mb 72f 71f
5:36am 5 6 mph 1016mb 72f 71f
5:30am 5
mph
1016mb 72f 71f
5:24am 5 6 mph 1016mb 72f 71f
5:18am 5 7 mph 1016mb 72f 71f
5:12am 6
mph
1016.1mb 72f 71f
5:06am 5 7 mph 1016.1mb 72f 71f
5:00am 5 8 mph 1016.1mb 72f 71f
4:54am 7 8 mph 1016.1mb 72f 71f
4:48am 6 8 mph 1016.1mb 72f 71f
4:42am 6 7 mph 1016.1mb 72f 71f
4:36am 6 8 mph 1016.1mb 72f 71f
4:30am 6 7 mph 1016.2mb 72f 71f
4:24am 6 7 mph 1016.2mb 72f 71f
4:18am 5 6 mph 1016.2mb 72f 71f
4:12am 6
mph
1016.4mb 72f 71f
4:06am 5 7 mph 1016.4mb 72f 71f
4:00am 3 6 mph 1016.4mb 72f 71f
3:54am 5
mph
1016.5mb 72f 71f
3:48am 5
mph
1016.5mb 72f 71f
3:42am 3 6 mph 1016.5mb 72f 71f
3:36am 5 7 mph 1016.5mb 72f 71f
3:30am 6
mph
1016.6mb 72f 71f
3:24am 3 5 mph 1016.7mb 72f 71f
3:18am 3 6 mph 1016.8mb 72f 71f
3:12am 3 5 mph 1016.9mb 72f 71f
3:06am 3 5 mph 1017mb 72f 71f
3:00am 3 5 mph 1017mb 72f 71f
2:54am 3 5 mph 1017mb 72f 71f
2:48am 5
mph
1017mb 72f -
2:42am 5 6 mph 1017.1mb 72f -
2:36am 5 6 mph 1017mb 72f -
2:30am 6 7 mph 1017mb 72f 71f
2:24am 6 7 mph 1017.1mb 72f 71f
2:18am 7 8 mph 1017.1mb 72f 71f
2:12am 7 8 mph 1017mb 72f 71f
2:06am 6 7 mph 1017.1mb 72f 71f
2:00am 6 8 mph 1017mb 72f 71f
1:54am 6 7 mph 1017mb 72f 71f
1:48am 6 8 mph - - -
1:42am 7 9 mph - - -
1:36am 8 9 mph - - -
1:30am 8 10 mph 1017.2mb 73f 72f
1:24am 9 10 mph 1017.2mb 73f 71f
1:18am 7 8 mph 1017.2mb 73f 71f
1:12am 6 7 mph 1017.2mb 73f 71f
1:06am 6 7 mph 1017.2mb 73f 72f
1:00am 6 7 mph 1017.3mb 73f 72f
12:54am 7 8 mph 1017.3mb 73f 72f
12:48am 6 7 mph 1017.3mb 73f 72f
12:42am 6 7 mph 1017.3mb 73f 72f
12:36am 5 7 mph 1017.4mb 73f 72f
12:30am 5 6 mph 1017.3mb 73f 71f
12:24am 3 5 mph 1017.4mb 73f 72f
12:18am 3 6 mph 1017.4mb 73f 72f
12:12am 5 6 mph 1017.5mb 73f 72f
12:06am 5 6 mph 1017.4mb 73f 72f
12:00am 5 6 mph 1017.5mb 73f 72f
Tue 08/30 11:54pm 5 7 mph 1017.6mb 73f 72f
11:48pm 6 7 mph 1017.5mb 73f 72f
11:42pm 6 8 mph 1017.6mb 73f 72f
11:36pm 6 8 mph 1017.5mb 73f 72f
11:30pm 7 9 mph 1017.6mb 73f 72f
11:24pm 7 10 mph 1017.6mb 73f 72f
11:18pm 8 10 mph 1017.5mb 73f 72f
11:12pm 9 10 mph 1017.5mb 73f 72f
11:06pm 8 10 mph 1017.4mb 73f 72f
11:00pm 8 10 mph 1017.5mb 73f 72f
10:54pm 9 10 mph 1017.5mb 73f 72f
10:48pm 8 10 mph 1017.6mb 73f 72f
10:42pm 9 11 mph 1017.7mb 73f 72f
10:36pm 9 11 mph 1017.7mb 73f 72f
10:30pm 8 10 mph - 73f 72f
10:24pm 9 11 mph - 73f 72f
10:18pm 9 10 mph 1017.7mb 73f 72f
10:12pm 8 10 mph 1017.7mb 73f 72f
10:06pm 9 11 mph 1017.7mb 73f 72f
10:00pm  -  mph 1017.7mb 73f 72f
9:54pm  -  mph 1017.7mb 73f 72f
9:48pm 8 9 mph - 73f 72f
9:42pm 7 9 mph - 73f 72f
9:36pm 7 9 mph - 73f 72f
9:30pm 7 9 mph - 73f 72f
9:24pm 7 8 mph - 73f 72f
9:18pm  -  mph 1018mb 73f 72f
9:12pm  -  mph 1018mb 73f 72f
9:06pm  -  mph 1017.9mb 73f 72f
9:00pm  -  mph 1017.9mb 73f 72f
8:54pm  -  mph 1017.9mb 73f 72f
8:48pm  -  mph - 73f 72f
8:42pm  -  mph - 73f 72f
8:36pm  -  mph - 73f 72f
8:30pm 7 9 mph - 73f 72f
8:24pm 8 10 mph - 73f 72f
8:18pm  -  mph 1017.7mb 73f 72f
8:12pm  -  mph 1017.7mb 73f 72f
8:06pm  -  mph 1017.7mb 73f 72f
8:00pm  -  mph 1017.7mb 73f 72f
7:54pm  -  mph 1017.6mb 73f 72f
7:48pm  -  mph 1017.6mb 73f -
7:42pm  -  mph 1017.6mb 73f -
7:36pm  -  mph 1017.6mb 73f -
7:30pm 9 10 mph - 73f 72f
7:24pm 9 11 mph - 73f 72f
7:18pm  -  mph 1017.5mb 73f 72f
7:12pm  -  mph 1017.5mb 73f 72f
7:06pm  -  mph 1017.3mb 73f 72f
7:00pm  -  mph 1017.4mb 73f 73f
6:54pm  -  mph 1017.4mb 73f 73f
6:48pm  -  mph 1017.5mb 73f -
6:42pm  -  mph 1017.5mb 73f -
6:36pm  -  mph 1017.6mb 73f -
6:30pm 11 15 mph - 73f 73f
6:24pm 11 14 mph - 73f 73f
6:18pm  -  mph 1017.6mb 73f 73f
6:12pm  -  mph 1017.6mb 73f 74f
6:06pm  -  mph 1017.7mb 73f 73f
6:00pm 9 15 mph 1017.7mb 73f 74f
5:54pm 11 14 mph 1017.7mb 73f 74f
5:48pm 11 13 mph 1017.8mb 72f 74f
5:42pm 10 14 mph 1017.8mb 73f 74f
5:36pm 10 14 mph 1017.9mb 73f 74f
5:30pm 11 14 mph 1017.8mb 73f 74f
5:24pm 10 13 mph 1017.8mb 73f 74f
5:18pm 10 14 mph 1017.8mb 73f 74f
5:12pm 11 15 mph 1017.8mb 73f 74f
5:06pm 10 13 mph 1017.9mb 73f 74f
5:00pm 10 16 mph 1017.7mb 73f 74f
4:54pm 11 16 mph 1017.6mb 73f 74f
4:48pm 13 16 mph 1017.6mb 73f 74f
4:42pm 14 17 mph 1017.8mb 73f 74f
4:36pm 13 15 mph 1017.8mb 72f 74f
4:30pm 13 16 mph 1017.8mb 72f 74f
4:24pm 10 15 mph 1017.9mb 72f 74f
4:18pm 13 15 mph 1018mb 72f 74f
4:12pm 11 15 mph 1018mb 72f 74f
4:06pm 11 14 mph 1018.2mb 72f 74f
4:00pm 11 15 mph 1018.2mb 72f 74f
3:54pm 10 14 mph 1018.3mb 72f 75f
3:48pm 13 16 mph 1018.2mb 72f 74f
3:42pm 13 15 mph 1018.3mb 72f 74f
3:36pm 13 15 mph 1018.4mb 72f 74f
3:30pm 11 14 mph 1018.4mb 72f 75f
3:24pm 11 13 mph 1018.5mb 72f 74f
3:18pm 11 13 mph 1018.5mb 72f 74f
3:12pm 10 11 mph 1018.7mb 72f 75f
3:06pm 9 14 mph 1018.9mb 72f 74f
3:00pm 10 14 mph 1018.9mb 72f 74f
2:54pm 11 13 mph 1019mb 72f 74f
2:48pm 11 14 mph 1019.2mb 72f 74f
2:42pm 11 13 mph 1019.2mb 72f 74f
2:36pm 10 14 mph 1019.3mb 72f 74f
2:30pm 11 13 mph 1019.3mb 72f 74f
2:24pm 9 11 mph 1019.4mb 72f 74f
2:18pm 10 13 mph 1019.4mb 72f 74f
2:12pm 11 15 mph 1019.4mb 72f 74f
2:06pm 10 14 mph 1019.6mb 72f 74f
2:00pm 10 14 mph 1019.7mb 72f 74f
1:54pm 11
mph
1019.7mb 72f 74f
1:48pm 10 14 mph 1019.8mb 72f 74f
1:42pm 10 13 mph 1020mb 72f 73f
1:36pm 11 14 mph 1019.9mb 72f 73f
1:30pm 9 13 mph 1020mb 72f 73f
1:24pm 8 13 mph 1020.1mb 72f 73f
1:18pm 9 11 mph 1020.3mb 72f 74f
1:12pm 9 11 mph 1020.3mb 72f 74f
1:06pm 9 11 mph 1020.4mb 72f 73f
1:00pm 9 10 mph 1020.4mb 72f 73f
12:54pm 8 11 mph 1020.5mb 72f 73f
12:48pm 7 10 mph 1020.4mb 71f 74f
12:42pm 8 10 mph 1020.4mb 71f 73f
12:36pm 7 10 mph 1020.4mb 71f 73f
12:30pm 8 11 mph 1020.5mb 71f 73f
12:24pm 8 10 mph 1020.6mb 71f 73f
12:18pm 8 10 mph 1020.7mb 71f 72f
12:12pm 9 10 mph 1020.7mb 71f 72f
12:06pm 9 10 mph 1020.7mb 71f 73f
12:00pm 8 10 mph 1020.7mb 71f 73f
11:54am 8 10 mph 1020.8mb 72f 73f
11:48am 9 10 mph 1020.8mb 71f 73f
11:42am 8 10 mph 1020.8mb 71f 73f
11:36am 8 9 mph 1020.9mb 71f 73f
11:30am 7 9 mph 1021mb 71f 73f
11:24am 7 9 mph 1021mb 71f 73f
11:18am 8 9 mph 1021.1mb 71f 73f
11:12am 6 8 mph 1021.2mb 71f 72f
11:06am 6 7 mph 1021.2mb 71f 72f
11:00am 6 7 mph 1021.2mb 71f 72f
10:54am 5 6 mph 1021.2mb 71f 72f
10:48am 3
mph
1021.3mb 71f 72f
10:42am 2 5 mph 1021.4mb 71f 72f
10:36am 3 5 mph 1021.4mb 71f 72f
10:30am 3 5 mph 1021.4mb 71f 72f
10:24am 3 5 mph 1021.5mb 71f 71f
10:18am 3 5 mph 1021.6mb 71f 71f
10:06am 3 6 mph 1021.7mb 71f 71f
10:00am 5 6 mph 1021.7mb 71f 71f
9:54am 6 7 mph 1021.8mb 71f 70f
9:48am 6 7 mph 1021.9mb 71f 71f
9:42am 5 7 mph 1021.8mb 71f 71f
9:36am 3 6 mph 1021.7mb 71f 71f
9:30am 5 7 mph 1021.7mb 71f 71f
9:24am 5 7 mph 1021.8mb 71f 70f
9:18am 5 7 mph 1021.7mb 71f 70f
9:12am 5 9 mph 1021.7mb 71f 69f
9:06am 8 9 mph 1021.7mb 71f 69f
9:00am 5 7 mph 1021.6mb 71f 70f
8:54am 5 7 mph 1021.5mb 71f 69f
8:48am 6 8 mph 1021.5mb 71f 69f
8:42am 2 5 mph 1021.3mb 71f 70f
8:36am 2 3 mph 1021.2mb 71f 70f
8:30am 2 3 mph 1021.1mb 71f 69f
8:24am 2 5 mph 1021mb 71f 69f
8:18am 3 6 mph 1021.1mb 71f 68f
8:12am 3 8 mph 1021mb 71f 68f
8:06am 5 6 mph 1021.1mb 71f 68f
8:00am 3 6 mph 1021.1mb 71f 68f
7:54am 3 6 mph 1021.2mb 71f 68f
7:48am 5 7 mph 1021.3mb 71f 68f
7:42am 5 6 mph 1021.3mb 71f 68f
7:36am 5 6 mph 1021.3mb 71f 67f
7:30am 3 6 mph 1021.2mb 71f 67f
7:24am 5 7 mph 1021.2mb 71f 67f
7:18am 5 7 mph 1021.2mb 71f 67f
7:12am 5 8 mph 1021.2mb 71f 67f
7:06am 5 9 mph 1021.1mb 71f 67f
7:00am 8 10 mph 1021.1mb 71f 66f
6:54am 7 10 mph 1021mb 71f 67f
6:48am 5 9 mph 1021.1mb 71f 67f
6:42am 6 8 mph 1020.9mb 71f 66f
6:36am 5 8 mph 1020.9mb 71f 65f
6:30am 6 7 mph 1020.9mb 71f 65f
6:24am 6 7 mph 1020.9mb 71f 65f
6:18am 5 7 mph 1020.8mb 71f 65f
6:12am 6 7 mph 1020.7mb 71f 65f
6:06am 5 7 mph 1020.8mb 71f 66f
6:00am 6 7 mph 1020.8mb 71f 66f
5:54am 6 7 mph 1020.9mb 71f 66f
5:48am 6 8 mph 1021mb 71f 66f
5:42am 5 7 mph 1020.9mb 71f 67f
5:36am 5 6 mph 1021mb 71f 66f
5:30am 3 6 mph 1021mb 71f 67f
5:24am 5 7 mph 1021mb 71f 67f
5:18am 5 6 mph 1021mb 71f 67f
5:12am 3 6 mph 1020.9mb 71f 67f
5:06am 5
mph
1020.8mb 71f 67f
5:00am 3
mph
1020.8mb 71f 67f
4:54am 3 5 mph 1020.7mb 71f 67f
4:48am 3 6 mph 1020.7mb 71f 67f
4:42am 5 6 mph 1020.7mb 71f 67f
4:36am 5 7 mph 1020.7mb 71f 67f
4:30am 6 8 mph 1020.8mb 71f 67f
4:24am 5 7 mph 1020.8mb 71f 67f
4:18am 5 6 mph 1020.9mb 71f 67f
4:12am 5 8 mph 1020.8mb 71f 67f
4:06am 3 8 mph 1020.8mb 71f 68f
4:00am 6 8 mph 1020.7mb 71f 68f
3:54am 3 7 mph 1020.8mb 71f 68f
3:48am 3 7 mph 1020.8mb 71f 68f
3:42am 5
mph
1020.8mb 71f 68f
3:36am 5 6 mph 1020.8mb 71f 67f
3:30am 5 6 mph 1020.7mb 71f 68f
3:24am 5 6 mph 1020.7mb 71f 68f
3:18am 5 7 mph 1020.8mb 71f 68f
3:12am 5 7 mph 1020.8mb 71f 68f
3:06am 6 8 mph 1020.8mb 71f 68f
3:00am 7 9 mph 1020.7mb 71f 68f
2:54am 6 8 mph 1020.8mb 71f 68f
2:48am 6 9 mph 1020.9mb 71f -
2:42am 6 9 mph 1020.9mb 71f -
2:36am 7 8 mph 1020.9mb 71f -
2:30am 5 8 mph 1020.9mb 71f 69f
2:24am 7 8 mph 1020.9mb 71f 69f
2:18am 7 10 mph 1020.7mb 71f 69f
2:12am 6 10 mph 1020.8mb 72f 69f
2:06am 6 8 mph 1020.7mb 71f 70f
2:00am 6 9 mph 1020.7mb 72f 70f
1:54am 7 10 mph 1020.7mb 72f 70f
1:48am 7 9 mph 1020.7mb 72f -
1:42am 5 7 mph 1020.7mb 72f -
1:36am 5 7 mph 1020.6mb 72f -
1:30am 5 8 mph 1020.6mb 72f 71f
1:24am 7 9 mph 1020.5mb 72f 71f
1:18am 7 11 mph 1020.4mb 72f 71f
1:12am 9 14 mph 1020.5mb 72f 71f
1:06am 9 13 mph 1020.4mb 72f 71f
1:00am 6 8 mph 1020.6mb 71f 71f
12:54am 6 10 mph 1020.5mb 72f 71f
12:48am 7 8 mph 1020.6mb 72f 72f
12:42am 7 8 mph 1020.5mb 72f 72f
12:36am 6 10 mph 1020.5mb 72f 72f
12:30am 6 10 mph 1020.5mb 72f 72f
12:24am 7 9 mph 1020.5mb 72f 72f
12:18am 6 9 mph 1020.5mb 72f 72f
12:12am 6 8 mph 1020.3mb 72f 72f
12:06am 6 8 mph 1020.3mb 73f 72f
12:00am 6 8 mph 1020.3mb 72f 72f
Mon 08/29 11:54pm 6 8 mph 1020.3mb 72f 72f
11:48pm 6 9 mph 1020.2mb 72f 73f
11:42pm 6 8 mph 1020.3mb 73f 73f
11:36pm 7 8 mph 1020.2mb 73f 73f
11:30pm 7 9 mph 1020.3mb 73f 73f
11:24pm 6 9 mph 1020.2mb 73f 74f
11:18pm 7 10 mph 1020.2mb 73f 74f
11:12pm 8 10 mph 1020.1mb 73f 74f
11:06pm 8 9 mph 1020.1mb 73f 74f
11:00pm 7 9 mph 1020.1mb 73f 74f
10:54pm 5 9 mph 1020.1mb 73f 75f
10:48pm 7 9 mph - 73f 75f
10:42pm 7 10 mph - 73f 75f
10:36pm 6 9 mph - 73f 75f
10:30pm 6 9 mph - 73f 75f
10:24pm 6 9 mph - 73f 76f
10:18pm 7 10 mph 1019.8mb 73f 76f
10:12pm 6 10 mph 1019.8mb 73f 76f
10:06pm 6 10 mph 1019.9mb 73f 76f
10:00pm  -  mph 1019.8mb 73f 76f
9:48pm 7 9 mph - 73f 77f
9:42pm 7 14 mph - 73f 77f
9:36pm 9 14 mph - 73f 78f
9:30pm 9 15 mph - 73f 78f
9:24pm 9 14 mph - 73f 78f
9:18pm 10 15 mph - 73f 78f
9:12pm 10 15 mph - 74f 78f
9:06pm 9 13 mph - 73f 79f
9:00pm 9 15 mph 1019.2mb 74f 79f
8:54pm 11 15 mph 1019.1mb 73f 79f
8:48pm 10 14 mph - 73f -
8:42pm 9 14 mph - 73f -
8:36pm 11 15 mph - 73f -
8:30pm 9 16 mph - 73f 79f
8:24pm 9 14 mph - 73f 79f
8:18pm 8 11 mph 1018.8mb 74f 79f
8:12pm 7 14 mph 1018.8mb 73f 80f
8:06pm 9 17 mph 1018.6mb 73f 80f
8:00pm  -  mph 1018.6mb 73f 79f
7:54pm  -  mph 1018.5mb 73f 80f
7:48pm  -  mph 1018.3mb 73f -
7:42pm  -  mph 1018.3mb 73f -
7:36pm  -  mph 1018.2mb 73f -
7:30pm 6 9 mph 1017.9mb 73f 80f
7:24pm 5 10 mph 1017.8mb 73f 81f
7:18pm  -  mph 1017.7mb 73f 82f
7:12pm  -  mph 1017.6mb 73f 82f
7:06pm  -  mph 1017.6mb 73f 82f
7:00pm 7 10 mph - 73f 82f
6:54pm 7 10 mph - 73f 82f
6:48pm 7 13 mph - 73f 83f
6:36pm 7 13 mph - 72f 83f
6:30pm 8 13 mph - 72f 84f
6:24pm 10 15 mph - 72f 84f
6:18pm 9 13 mph 1017.2mb 72f 84f
6:12pm 8 11 mph 1017.1mb 72f 84f
6:06pm 7 9 mph 1017.1mb 72f 85f
6:00pm  -  mph - 72f 85f
5:54pm  -  mph - 72f 85f
5:48pm 6 10 mph 1017mb 72f 85f
5:42pm 7 13 mph 1017mb 72f 85f
5:36pm 8 10 mph 1017mb 72f 85f
5:30pm 8 13 mph 1016.9mb 72f 85f
5:24pm 8 10 mph 1016.9mb 72f 85f
5:18pm 6 13 mph 1016.9mb 72f 85f
5:12pm 8 13 mph 1016.8mb 72f 85f
5:06pm 10 14 mph 1016.8mb 72f 85f
5:00pm 10 14 mph 1016.8mb 72f 85f
4:54pm 8 14 mph 1016.7mb 72f 85f
4:48pm 9 14 mph 1016.6mb 72f 86f
4:42pm 8 11 mph 1016.6mb 72f 86f
4:36pm 8 14 mph 1016.5mb 72f 86f
4:30pm 7 14 mph 1016.6mb 72f 85f
4:24pm 11 16 mph 1016.6mb 72f 85f
4:18pm 9 11 mph 1016.7mb 73f 86f
4:12pm 8 15 mph 1016.6mb 73f 86f
4:06pm 10 14 mph 1016.6mb 73f 86f
4:00pm 10 17 mph 1016.6mb 73f 86f
3:54pm 11 17 mph 1016.5mb 72f 86f
3:48pm 11 16 mph 1016.6mb 72f 86f
3:42pm 7 11 mph 1016.5mb 72f 86f
3:36pm 6 11 mph 1016.4mb 72f 86f
3:30pm 11 15 mph 1016.5mb 72f 86f
3:24pm 10 17 mph 1016.4mb 73f 86f
3:18pm 10 15 mph 1016.5mb 73f 86f
3:12pm 9 16 mph 1016.5mb 72f 86f
3:06pm 9 16 mph 1016.4mb 72f 86f
3:00pm 11 15 mph 1016.5mb 72f 86f
2:54pm 8 13 mph 1016.5mb 72f 86f
2:48pm 7 13 mph 1016.5mb 72f 85f
2:42pm 7 15 mph 1016.6mb 72f 86f
2:36pm 11 16 mph 1016.6mb 72f 86f
2:30pm 10 15 mph 1016.6mb 72f 86f
2:24pm 11 14 mph 1016.6mb 72f 86f
2:18pm 9 17 mph 1016.7mb 72f 85f
2:12pm 13 15 mph 1016.7mb 72f 85f
2:06pm 9 14 mph 1016.7mb 72f 85f
2:00pm 10 18 mph 1016.7mb 72f 85f
1:54pm 14 16 mph 1016.7mb 72f 85f
1:48pm 10 14 mph 1016.8mb 72f 85f
1:42pm 10 13 mph 1016.8mb 72f 85f
1:36pm 7 13 mph 1016.9mb 72f 85f
1:30pm 6 11 mph 1016.8mb 72f 85f
1:24pm 9 15 mph 1016.8mb 72f 85f
1:18pm 9 15 mph 1016.7mb 72f 84f
1:12pm 9 11 mph 1016.8mb 72f 84f
1:06pm 7 11 mph 1016.8mb 72f 84f
1:00pm 9 11 mph 1016.8mb 72f 83f
12:54pm 8 11 mph 1016.7mb 72f 84f
12:48pm 8 10 mph 1016.7mb 72f 83f
12:42pm 8 10 mph 1016.7mb 72f 84f
12:36pm 7 13 mph 1016.8mb 72f 83f
12:30pm 9 11 mph 1016.9mb 72f 83f
12:24pm 7 8 mph 1017mb 72f 83f
12:18pm 7 9 mph 1016.9mb 72f 83f
12:12pm 6 11 mph 1017mb 72f 83f
12:06pm 8 11 mph 1017mb 72f 82f
12:00pm 7 9 mph 1017.1mb 72f 82f
11:54am 7 9 mph 1017.2mb 72f 82f
11:48am 6 10 mph 1017.2mb 72f 82f
11:42am 3 8 mph 1017.3mb 72f 82f
11:36am 6 8 mph 1017.3mb 72f 81f
11:30am 6 9 mph 1017.4mb 72f 80f
11:24am 6 11 mph 1017.4mb 72f 81f
11:18am 6 9 mph 1017.5mb 72f 81f
11:12am 6 8 mph 1017.6mb 72f 80f
11:06am 3 9 mph 1017.7mb 72f 80f
11:00am 6 8 mph 1017.7mb 72f 80f
10:54am 7 11 mph 1017.9mb 72f 80f
10:48am 8 9 mph 1017.9mb 72f 80f
10:42am 6 7 mph 1018mb 72f 80f
10:36am 6 7 mph 1018mb 72f 80f
10:30am 5 9 mph 1018mb 72f 80f
10:24am 7 9 mph 1017.9mb 72f 79f
10:18am 7 9 mph 1018mb 72f 79f
10:12am 6 8 mph 1018mb 72f 80f
10:06am 5 8 mph 1018mb 72f 78f
10:00am 3 6 mph 1017.9mb 72f 78f
9:48am 5 6 mph 1018mb 72f 78f
9:42am 3 5 mph 1018.1mb 72f 78f
9:36am 3 5 mph 1018.2mb 72f 77f
9:30am 3 8 mph 1018.2mb 72f 77f
9:24am 3 5 mph 1018.2mb 72f 76f
9:18am 3 5 mph 1018.4mb 72f 76f
9:00am 5 11 mph 1018.4mb 72f 76f
8:54am 7
mph
1018.5mb - 75f
8:48am 3 6 mph 1018.6mb 72f 75f
8:42am 2 5 mph 1018.6mb 72f 74f
8:36am 3 7 mph 1018.6mb 72f 74f
8:30am 6 8 mph 1018.6mb 72f 74f
8:24am 5 9 mph 1018.6mb 72f 73f
8:18am 7 8 mph 1018.6mb 72f 73f
8:00am 8 10 mph 1018.5mb 72f 73f
7:54am 8 9 mph 1018.6mb 72f 73f
7:48am 6 8 mph 1018.7mb 72f 73f
7:42am 6 7 mph 1018.6mb 72f 73f
7:36am 6 7 mph 1018.6mb 72f 73f
7:30am 6 7 mph 1018.7mb 72f 73f
7:24am 7 8 mph 1018.7mb 72f 73f
7:18am 6 8 mph 1018.7mb 72f 72f
7:12am 6 8 mph 1018.7mb 72f 72f
7:06am 7 9 mph 1018.6mb 72f 72f
7:00am 8 9 mph 1018.6mb 72f 72f
6:54am 7 9 mph 1018.7mb 72f 72f
6:48am 7 8 mph 1018.8mb 72f 72f
6:42am 8 9 mph 1018.8mb 72f 72f
6:36am 7 8 mph 1018.7mb 72f 72f
6:30am 7 8 mph 1018.7mb 72f 72f
6:24am 7 8 mph 1018.7mb 72f 72f
6:18am 6 8 mph 1018.7mb 72f 72f
6:12am 7 8 mph 1018.7mb 72f 72f
6:06am 7 9 mph 1018.7mb 72f 72f
6:00am 8 10 mph 1018.6mb 72f 72f
5:54am 8
mph
1018.6mb 72f 72f
5:48am 7 9 mph 1018.7mb 72f 72f
5:42am 8 10 mph 1018.6mb 72f 72f
5:36am 8 9 mph 1018.7mb 72f 72f
5:30am 8 9 mph 1018.7mb 72f 72f
5:24am 7 10 mph 1018.8mb 72f 72f
5:18am 9 11 mph 1018.8mb 72f 72f
5:12am 8 10 mph 1018.9mb 72f 72f
5:06am 7 10 mph 1019mb 72f 72f
5:00am 7 11 mph 1019.1mb 72f 72f
4:54am 7 9 mph 1019.1mb 71f 72f
4:48am 7 9 mph 1019.1mb 71f 72f
4:42am 8 10 mph 1019.2mb 71f 72f
4:36am 8 10 mph 1019.3mb 71f 72f
4:30am 8 10 mph 1019.4mb 72f 72f
4:24am 9 13 mph 1019.3mb 72f 72f
4:18am 10 11 mph 1019.4mb 72f 72f
4:12am 9 13 mph 1019.5mb 72f 72f
4:06am 10 11 mph 1019.5mb 72f 72f
4:00am 10 14 mph 1019.6mb 71f 72f
3:54am 11 14 mph 1019.6mb 71f 72f
3:48am 11 13 mph 1019.5mb 71f 72f
3:42am 11 14 mph 1019.6mb 71f 71f
3:36am 11 13 mph 1019.7mb 71f 71f
3:30am 11 13 mph 1019.8mb 71f 71f
3:24am 10 14 mph 1019.8mb 71f 72f
3:18am 10 13 mph 1019.9mb 71f 72f
3:12am 10 14 mph 1019.9mb 71f 72f
3:06am 11 14 mph 1019.9mb 72f 72f
3:00am 11 14 mph 1020mb 72f 72f
2:54am 11 15 mph 1020.1mb 72f 72f
2:48am 13 15 mph 1020.2mb 72f 72f
2:42am 11 14 mph 1020.2mb 72f 72f
2:36am 11 14 mph 1020.1mb 72f 72f
2:30am 11 15 mph 1020.2mb 72f 72f
2:24am 11 14 mph 1020.1mb 72f 72f
2:18am 11 14 mph 1020.2mb 72f 72f
2:06am 11 14 mph 1020.4mb 72f 72f
2:00am 8 11 mph 1020.4mb 72f 72f
1:54am 9 11 mph 1020.4mb 72f 72f
1:48am 9 10 mph 1020.5mb 72f -
1:42am 9
mph
1020.5mb 72f -
1:36am 8 9 mph 1020.6mb 72f -
1:30am 9 11 mph 1020.6mb 72f 71f
1:24am 9
mph
1020.6mb 72f 71f
1:18am 7 9 mph 1020.7mb 72f 71f
1:12am 8 9 mph 1020.7mb 72f 71f
1:06am 7 9 mph 1021mb 72f 71f
1:00am 8 9 mph 1021mb 72f 71f
12:54am 7 9 mph 1021mb 73f 71f
12:48am 8 9 mph 1021.1mb 72f 71f
12:42am 7 9 mph 1021.2mb 72f 71f
12:36am 7 10 mph 1021.2mb 72f 71f
12:30am 8 9 mph 1021.2mb 72f 71f
12:24am 7 9 mph 1021.3mb 73f 71f
12:18am 7 8 mph 1021.4mb 73f 72f
12:12am 6 7 mph 1021.4mb 73f 71f
12:06am 6 7 mph 1021.5mb 73f 72f
12:00am 5 7 mph 1021.5mb 73f 72f
Sun 08/28 11:54pm 6 9 mph 1021.4mb 73f 72f
11:48pm 7 9 mph 1021.4mb 73f 72f
11:42pm 7 8 mph 1021.4mb 73f 72f
11:36pm 6 7 mph 1021.4mb 73f 72f
11:30pm 7 9 mph 1021.3mb 73f 72f
11:24pm 7 8 mph 1021.3mb 73f 72f
11:18pm 6 7 mph 1021.5mb 73f 72f
11:12pm 6
mph
1021.5mb 73f 72f
11:06pm 5 7 mph 1021.5mb 73f 72f
11:00pm 6 9 mph 1021.5mb 73f 72f
10:54pm 7 8 mph 1021.5mb 73f 72f
10:48pm 6 9 mph 1021.5mb 73f 72f
10:42pm 7
mph
1021.5mb 74f 72f
10:36pm 6 8 mph 1021.5mb 74f 72f
10:30pm 6 7 mph 1021.5mb 74f 72f
10:24pm 6 7 mph 1021.6mb 74f 72f
10:18pm 6 8 mph 1021.7mb 74f 72f
10:12pm 6 7 mph 1021.6mb 74f 72f
10:06pm 5 7 mph 1021.7mb 74f 72f
10:00pm 6 7 mph 1021.7mb 73f 72f
9:54pm 6 8 mph 1021.6mb 74f 72f
9:48pm 6 7 mph 1021.7mb 74f 72f
9:42pm 6 7 mph 1021.7mb 73f 72f
9:36pm 5 7 mph 1021.6mb 73f 72f
9:30pm 6 8 mph 1021.7mb 73f 72f
9:24pm 6 7 mph 1021.7mb 73f 72f
9:18pm 6 7 mph 1021.7mb 73f 72f
9:12pm 6 7 mph 1021.6mb 74f 72f
9:06pm 6 7 mph 1021.7mb 73f 72f
9:00pm  -  mph 1021.7mb 73f 72f
8:54pm  -  mph 1021.8mb 73f 72f
8:48pm 6
mph
1021.8mb 73f 72f
8:42pm 6 7 mph 1021.8mb 73f 72f
8:36pm 6
mph
1021.7mb 73f 73f
8:30pm 5 6 mph 1021.8mb 73f 72f
8:24pm 5 7 mph 1021.7mb 73f 73f
8:18pm  -  mph 1021.7mb 73f 72f
8:12pm  -  mph 1021.7mb 73f 73f
8:06pm  -  mph 1021.6mb 73f 73f
8:00pm 7 8 mph 1021.7mb 73f 72f
7:54pm 6 8 mph 1021.8mb 73f 72f
7:48pm 7 8 mph - 73f 73f
7:42pm 6 8 mph - 73f 73f
7:36pm 7 9 mph - 73f 73f
7:30pm 8 9 mph 1022mb 73f 73f
7:24pm 8 11 mph 1022mb 73f 73f
7:18pm  -  mph 1022mb 73f 73f
7:12pm  -  mph 1021.9mb 73f 73f
7:06pm  -  mph 1022mb 73f 73f
7:00pm 10 13 mph 1022mb 73f 73f
6:54pm 9 11 mph 1022mb 73f 73f
6:48pm  -  mph - 73f -
6:42pm  -  mph - 73f -
6:36pm  -  mph - 73f -
6:30pm 11 13 mph 1022.2mb 73f 74f
6:24pm 10 13 mph 1022.2mb 73f 74f
6:18pm  -  mph 1022.2mb 73f 74f
6:12pm  -  mph 1022.2mb 73f 74f
6:06pm  -  mph 1022.2mb 73f 74f
6:00pm  -  mph 1022.3mb 73f 74f
5:54pm  -  mph 1022.3mb 73f 74f
5:48pm  -  mph - 73f 74f
5:42pm  -  mph - 73f 75f
5:36pm  -  mph - 73f 74f
5:30pm 13 15 mph 1022.5mb 73f 75f
5:24pm 13 16 mph 1022.5mb 73f 74f
5:18pm 13 15 mph 1022.5mb 73f 75f
5:12pm 14 16 mph 1022.5mb 73f 74f
5:06pm 14 15 mph 1022.6mb 73f 75f
5:00pm 13 16 mph 1022.7mb 73f 75f
4:54pm 13 15 mph 1022.8mb 73f 75f
4:48pm 11 15 mph 1022.9mb 72f 76f
4:42pm 10 14 mph 1023mb 72f 76f
4:36pm 13 15 mph 1023mb 72f 76f
4:30pm 13 15 mph 1023.1mb 72f 76f
4:24pm 11 14 mph 1023.1mb 72f 76f
4:18pm 13 15 mph 1023.1mb 73f 77f
4:12pm 11 13 mph 1023.1mb 72f 77f
4:06pm 10 11 mph 1023.2mb 72f 77f
4:00pm 10 13 mph 1023.2mb 73f 77f
3:54pm 9 13 mph 1023.2mb 72f 78f
3:48pm 10 11 mph 1023.2mb 72f 77f
3:42pm 9 11 mph 1023.2mb 72f 77f
3:36pm 9 13 mph 1023.3mb 72f 77f
3:30pm 10 11 mph 1023.3mb 72f 77f
3:24pm 10 14 mph 1023.3mb 72f 77f
3:18pm 10
mph
1023.4mb 72f 77f
3:12pm 9 10 mph 1023.4mb 72f 78f
3:06pm 9 10 mph 1023.4mb 72f 79f
3:00pm 8 10 mph 1023.4mb 72f 79f
2:54pm 9 10 mph 1023.5mb 72f 79f
2:48pm 9 10 mph 1023.5mb 72f 79f
2:42pm 9 11 mph 1023.6mb 72f 79f
2:36pm 9 10 mph 1023.7mb 72f 78f
2:30pm 8 11 mph 1023.7mb 72f 78f
2:24pm 8 9 mph 1023.7mb 72f 78f
2:18pm 7 8 mph 1023.8mb 72f 78f
2:12pm 7 8 mph 1023.8mb 72f 78f
2:06pm 7 8 mph 1023.8mb 72f 76f
2:00pm 7 8 mph 1023.9mb 72f 77f
1:54pm 7 8 mph 1024mb 72f 76f
1:48pm 7 8 mph 1024mb 72f 76f
1:42pm 7 8 mph 1024.1mb 72f 76f
1:36pm 7 8 mph 1024.1mb 72f 77f
1:30pm 7 8 mph 1024.1mb 72f 76f
1:24pm 6 7 mph 1024.1mb 72f 76f
1:18pm 6 7 mph 1024.2mb 72f 76f
1:12pm 6 7 mph 1024.2mb 72f 76f
1:06pm 6 7 mph 1024.3mb 72f 77f
1:00pm 6 7 mph 1024.3mb 72f 76f
12:54pm 6 7 mph 1024.4mb 72f 77f
12:48pm 7
mph
1024.5mb 72f 76f
12:42pm 7 8 mph 1024.6mb 72f 76f
12:36pm 7
mph
1024.7mb 72f 76f
12:30pm 7
mph
1024.6mb 71f 76f
12:24pm 7 8 mph 1024.7mb 72f 76f
12:18pm 7 8 mph 1024.6mb 71f 76f
12:12pm 7 8 mph 1024.6mb 72f 76f
12:06pm 6 8 mph 1024.7mb 72f 76f
12:00pm 6
mph
1024.7mb 72f 77f
11:54am 2 3 mph 1024.8mb 72f 78f
11:48am 3 5 mph 1024.8mb 72f 78f
11:42am 3 5 mph 1024.9mb 72f 77f
11:36am 3 5 mph 1025mb 72f 78f
11:30am 3 5 mph 1025mb 72f 78f
11:24am 5 6 mph 1025.1mb 72f 77f
11:18am 5 6 mph 1025.2mb 72f 77f
11:12am 5 7 mph 1025.2mb 72f 77f
11:06am 3 6 mph 1025.2mb 72f 77f
11:00am 3 5 mph 1025.2mb 72f 77f
10:54am 3 5 mph 1025.2mb 72f 77f
10:48am 3 5 mph 1025.2mb 72f 77f
10:42am 3 5 mph 1025.2mb 72f 77f
10:36am 3
mph
1025.2mb 72f 77f
10:30am 2 5 mph 1025.3mb 72f 77f
10:24am 3 6 mph 1025.4mb 72f 76f
10:18am 3 5 mph 1025.5mb 72f 76f
10:12am 3 6 mph 1025.5mb 72f 76f
10:06am 3 5 mph 1025.5mb 72f 75f
10:00am 3 6 mph 1025.5mb 72f 75f
9:54am 3 6 mph 1025.5mb 72f 75f
9:48am 3 6 mph 1025.5mb 72f 75f
9:42am 5 6 mph 1025.5mb 72f 74f
9:36am 5 6 mph 1025.5mb 72f 74f
9:30am 5 7 mph 1025.4mb 72f 74f
9:24am 5
mph
1025.4mb 72f 74f
9:18am 3 5 mph 1025.4mb 72f 74f
9:12am 2 6 mph 1025.4mb 72f 74f
9:06am 3 5 mph 1025.4mb 72f 74f
9:00am 2 3 mph 1025.3mb 72f 74f
8:54am 3
mph
1025.3mb 72f 74f
8:48am 2 3 mph 1025.3mb 72f 73f
8:42am 2
mph
1025.4mb 72f 74f
8:36am 2
mph
1025.4mb 72f 74f
8:30am 1 2 mph 1025.4mb 72f 74f
8:24am 1 2 mph 1025.5mb 72f 74f
8:18am  -  1 mph 1025.4mb 72f 74f
8:12am  -  1 mph 1025.5mb 72f 74f
8:06am  -  1 mph 1025.4mb 72f 74f
8:00am  -  mph 1025.3mb 72f -
7:54am  -  mph 1025.3mb 72f -
7:48am  -  mph 1025.4mb 72f 74f
7:42am  -  mph 1025.5mb 72f 73f
7:36am  -  mph 1025.5mb 72f 73f
7:30am  -  mph 1025.4mb 72f 72f
7:24am  -  mph 1025.5mb 71f 72f
7:18am  -  mph 1025.5mb 71f 71f
7:12am  -  1 mph 1025.4mb 71f 71f
7:06am  -  1 mph 1025.4mb 71f 71f
7:00am  -  1 mph 1025.4mb 71f 71f
6:54am  -  mph 1025.3mb 71f 71f
6:48am  -  mph 1025.3mb 71f 71f
6:42am  -  1 mph 1025.1mb 71f 70f
6:36am  -  1 mph 1025mb 71f 69f
6:30am  -  1 mph 1024.9mb 71f 69f
6:24am  -  1 mph 1024.9mb 71f 69f
6:18am 1
mph
1024.8mb 71f 69f
6:12am  -  1 mph 1024.8mb 71f 69f
6:06am 1
mph
1024.8mb 72f 69f
6:00am  -  1 mph 1024.8mb 72f 69f
5:54am  -  mph 1024.7mb 72f 69f
5:48am  -  1 mph 1024.6mb 72f 69f
5:42am  -  1 mph 1024.6mb 72f 69f
5:36am  -  1 mph 1024.6mb 72f 69f
5:30am  -  1 mph 1024.4mb 72f 69f
5:24am  -  1 mph 1024.4mb 72f 69f
5:18am  -  mph 1024.3mb - 69f
5:12am  -  1 mph 1024.2mb 72f 70f
5:06am  -  1 mph 1024.1mb 72f 70f
5:00am  -  2 mph 1024.1mb 72f 70f
4:54am  -  3 mph 1024.1mb 72f 70f
4:48am 2 3 mph 1024mb 72f 71f
4:42am 2 3 mph 1024mb 72f 71f
4:36am 2 3 mph 1024mb 72f 71f
4:30am 3 5 mph 1023.9mb 72f 71f
4:24am 3 5 mph 1023.9mb 72f 71f
4:18am 3 5 mph 1024mb 72f 71f
4:12am 3 5 mph 1024mb 72f 71f
4:06am 3 6 mph 1024mb 72f 71f
4:00am 5 6 mph 1024mb 72f 71f
3:54am 3 6 mph 1023.9mb 72f 71f